Regional Weather Roundup
Issued by NWS

Home | Current Version | Previous Version | Graphics & Text | Print | Product List | Glossary On
Versions: 1 2 3 4 5 6 7 8 9 10 11 12 13 14 15 16 17 18 19 20 21 22 23 24 25 26 27 28 29 30 31 32 33 34 35 36 37 38 39 40 41 42 43 44 45 46 47 48 49 50
205
ASUS43 KIND 040009
RWRIN

WEATHER ROUNDUP FOR INDIANA
NATIONAL WEATHER SERVICE INDIANAPOLIS IN
700 PM EST SAT DEC 03 2016

NOTE: "FAIR" INDICATES FEW OR NO CLOUDS BELOW 12,000 FEET WITH NO
SIGNIFICANT WEATHER AND/OR OBSTRUCTIONS TO VISIBILITY.

* - STATION DOES NOT REPORT WEATHER SUCH AS PRECIPITATION OR FOG.

+ - STATION NOT QUALITY CONTROLLED BY THE NATIONAL WEATHER SERVICE.
    USE DATA WITH CAUTION...ESPECIALLY DEWPOINT AND RELATIVE
    HUMIDITY OBSERVATIONS.

INZ001>003-010>013-019-020-040100-
NORTHWEST INDIANA

CITY           SKY/WX    TMP DP  RH WIND       PRES   REMARKS
GARY /AIRPORT/ PTCLDY    30  25  80 SW5       30.32F WCI  25
KNOX *+        CLOUDY    32   9  37 W3        30.32S
LA PORTE +     CLOUDY    35  29  81 W6        30.31S WCI  30
6HR MIN TEMP:  35; 6HR MAX TEMP:  38;

MICHIGAN CITY+ CLOUDY    34  27  75 SW6       30.31S WCI  29
MONTICELLO +   CLOUDY    33  22  63 N3        30.31S
6HR MIN TEMP:  33; 6HR MAX TEMP:  36;

RENSSELAER +     N/A     34  30  86 W3        30.32S
VALPARAISO     CLOUDY    34  25  69 SW7       30.32R WCI  28
6HR MIN TEMP:  34; 6HR MAX TEMP:  37;


$$

LMZ046-743>745-040100-
SOUTHERN LAKE MICHIGAN

STATION/POSITION TIME  TEMP    WIND        PRES    WAVE
                       AIR SEA DIR/SP/G            HT
                 (UTC) (F)     (DEG/KT/KT) (MB)    (FT)
BURNS HARBOR     2340   35     260/  6/  9 1026.8F
MICHIGAN CITY    2340   34     180/  7/  8   N/A

$$

INZ004-005-014>016-021>024-040100-
NORTH CENTRAL INDIANA

CITY           SKY/WX    TMP DP  RH WIND       PRES   REMARKS
GOSHEN         CLOUDY    34  26  72 SW6       30.29F WCI  29
6HR MIN TEMP:  34; 6HR MAX TEMP:  37;

LOGANSPORT +   CLOUDY    34  27  75 CALM      30.33R
PERU/GRISSOM   CLOUDY    34  26  71 NW6       30.29S WCI  29
6HR MIN TEMP:  34; 6HR MAX TEMP:  37;

ROCHESTER +    CLOUDY    34  28  80 CALM      30.32R
SOUTH BEND     CLOUDY    33  25  72 SW6       30.30F WCI  28
6HR MIN TEMP:  33; 6HR MAX TEMP:  36;

WARSAW +       CLOUDY    32  25  74 W6        30.30S WCI  26

$$

INZ006>009-017-018-025>027-040100-
NORTHEAST INDIANA

CITY           SKY/WX    TMP DP  RH WIND       PRES   REMARKS
ANGOLA *+      CLOUDY    34  27  75 CALM      30.28S
AUBURN +       CLOUDY    36  25  64 CALM      30.30S
FORT WAYNE     CLOUDY    34  24  67 SW5       30.31R WCI  30
6HR MIN TEMP:  34; 6HR MAX TEMP:  37;

HUNTINGTON +   CLOUDY    33  27  76 CALM      30.31R
6HR MIN TEMP:  33; 6HR MAX TEMP:  36;

KENDALLVILLE + CLOUDY    34  25  69 CALM      30.28F

$$

INZ028-029-035-036-043>045-051>053-040100-
WEST CENTRAL INDIANA

CITY           SKY/WX    TMP DP  RH WIND       PRES   REMARKS
CRAWFORDSVL +  CLOUDY    32  27  81 CALM      30.31S
6HR MIN TEMP:  32; 6HR MAX TEMP:  36;

GREENCASTLE +  CLOUDY    34  32  93 N6        30.31S WCI  29
LAFAYETTE      CLOUDY    34  27  75 N6        30.32S WCI  29
6HR MIN TEMP:  34; 6HR MAX TEMP:  36;

TERRE HAUTE    CLOUDY    34  28  79 NE3       30.32F
6HR MIN TEMP:  34; 6HR MAX TEMP:  40;


$$

INZ030>032-037>040-046>048-054>057-064-065-040100-
CENTRAL INDIANA

CITY           SKY/WX    TMP DP  RH WIND       PRES   REMARKS
CP ATTERBURY + CLOUDY    36  28  75 CALM      30.32S
COLUMBUS       MOCLDY    34  30  86 CALM      30.32S
FRANKFORT +    CLOUDY    36  29  75 NW3       30.33S
6HR MIN TEMP:  36; 6HR MAX TEMP:  39;

GREENWOOD *+   PTCLDY    36  29  76 CALM      30.31R
6HR MIN TEMP:  36; 6HR MAX TEMP:  39;

INDIANAPOLIS   MOCLDY    34  27  75 N6        30.31R WCI  29
6HR MIN TEMP:  34; 6HR MAX TEMP:  39;

-EAGLE CREEK   CLOUDY    35  26  69 N6        30.31R WCI  30
6HR MIN TEMP:  35; 6HR MAX TEMP:  39;

KOKOMO +       CLOUDY    35  26  69 CALM      30.32R
6HR MIN TEMP:  35; 6HR MAX TEMP:  37;

MARION +       CLOUDY    34  29  82 W3        30.32R
MT COMFORT *+  CLOUDY    34  28  80 N5        30.31S WCI  30
SHELBYVILLE    CLOUDY    36  28  73 NE3       30.31R
6HR MIN TEMP:  36; 6HR MAX TEMP:  40;

ZIONSVILLE +   CLOUDY    33  26  78 CALM      30.31S
6HR MIN TEMP:  32; 6HR MAX TEMP:  35;


$$

INZ033-034-041-042-049-050-058-059-040100-
EAST CENTRAL INDIANA

CITY           SKY/WX    TMP DP  RH WIND       PRES   REMARKS
MUNCIE         CLOUDY    36  28  73 W3        30.31R
6HR MIN TEMP:  36; 6HR MAX TEMP:  40;


$$

INZ060-061-067>069-081>083-085>088-040100-
SOUTHWEST INDIANA

CITY           SKY/WX    TMP DP  RH WIND       PRES   REMARKS
EVANSVILLE     CLOUDY    41  31  67 NE6       30.31R
6HR MIN TEMP:  41; 6HR MAX TEMP:  46;

HUNTINGBURG *+ CLOUDY    40  29  64 N3        30.31R
6HR MIN TEMP:  40; 6HR MAX TEMP:  44;

WASHINGTON +   CLOUDY    38  33  80 N5        30.30S
6HR MIN TEMP:  38; 6HR MAX TEMP:  42;


$$

INZ062-063-066-070>080-084-089>092-040100-
SOUTH CENTRAL AND SOUTHEAST INDIANA

CITY           SKY/WX    TMP DP  RH WIND       PRES   REMARKS
BLOOMINGTON    PTCLDY    36  28  73 N5        30.30S
6HR MIN TEMP:  36; 6HR MAX TEMP:  42;

MADISON *+     CLOUDY    36  32  87 CALM      30.32S
NORTH VERNON + CLOUDY    37  36  93 NE5       30.31F
SEYMOUR +      CLOUDY    39  30  70 NE6       30.31S

$$





USA.gov is the U.S. government's official web portal to all federal, state and local government web resources and services.